Simultaneous Nadir Overpasses (SNOs) Predictions

Prediction of SNOs between GOES-14 and AQUA Satellite Orbit:

Table of predicted SNOs for the next 14.0 days since TLE Epoch: 7/10/2020
Index Date Time (GOES-14) GOES-14 Lat,Lon AQUA Lat,Lon Distance(km) Time Diff (sec)
1 07/12/2020 08:33:11 -0.25,-104.26 -0.14,-104.73 52.70 80
2 07/14/2020 08:23:40 -0.25,-104.27 -0.77,-101.77 284.41 80
3 07/14/2020 20:42:25 0.27,-104.48 -0.27,-106.97 284.06 80
4 07/16/2020 20:32:54 0.28,-104.49 0.36,-104.02 52.82 80
5 07/18/2020 20:20:43 0.28,-104.49 0.99,-101.06 389.45 80
6 07/19/2020 08:39:19 -0.31,-104.29 0.11,-106.22 219.32 80
7 07/21/2020 08:29:48 -0.31,-104.30 -0.53,-103.27 116.98 80
8 07/21/2020 20:48:33 0.33,-104.49 -0.50,-108.47 452.66 80
9 07/23/2020 08:17:37 -0.30,-104.30 -1.16,-100.31 453.39 80
10 07/23/2020 20:36:22 0.33,-104.49 0.13,-105.52 116.04 80
